• MPC Preparation (Info)

  • MPEC 2014-P34 : 2014 PJ51

    The following Minor Planet Electronic Circular may be linked-to from your own Web pages, but must not otherwise be redistributed electronically.

    A form allowing access to any MPEC is at the bottom of this page.


    Read MPEC 2014-P33 Read MPEC 2014-P35


    M.P.E.C. 2014-P34                                Issued 2014 Aug. 6, 14:14 UT
    
         The Minor Planet Electronic Circulars contain information on unusual
             minor planets and routine data on comets.  They are published
       on behalf of Commission 20 of the International Astronomical Union by the
              Minor Planet Center, Smithsonian Astrophysical Observatory,
                              Cambridge, MA 02138, U.S.A.
    
                 Prepared using the Tamkin Foundation Computer Network
    
                                  MPC@CFA.HARVARD.EDU
                URL https://www.minorplanetcenter.net/    ISSN 1523-6714
    
                                       2014 PJ51
    
    Observations:
         K14P51J  C2014 08 03.57945 00 39 57.254-24 48 58.37         21.8 wLEP034F51
         K14P51J  C2014 08 03.58928 00 39 55.453-24 48 29.16         21.8 wLEP034F51
         K14P51J  C2014 08 03.60892 00 39 51.869-24 47 30.24         21.7 wLEP034F51
         K14P51J* C2014 08 04.57263 00 37 24.664-24 00 19.99         21.6 wLEP034F51
         K14P51J  C2014 08 04.58252 00 37 22.907-23 59 51.47         21.6 wLEP034F51
         K14P51J  C2014 08 04.60228 00 37 19.343-23 58 54.42         21.5 wLEP034F51
         K14P51J KC2014 08 06.46068 00 32 39.60 -22 32 31.3          21.0 RoEP034291
         K14P51J KC2014 08 06.46387 00 32 39.06 -22 32 22.9          20.9 RoEP034291
         K14P51J KC2014 08 06.46705 00 32 38.51 -22 32 14.1          20.9 RoEP034291
    
    Observer details:
    291 LPL/Spacewatch II.  Observer R. A. Mastaler.  1.8-m f/2.7 reflector + CCD.
    F51 Pan-STARRS 1, Haleakala.  Observers N. Primak, A. Schultz, T. Goggia,
        M. Willman.  1.8-m Ritchey-Chretien + CCD.
    
    Orbital elements:
    2014 PJ51                                                Earth MOID = 0.0834 AU
    Epoch 2014 May 23.0 TT = JDT 2456800.5                  MPC
    M 345.78041              (2000.0)            P               Q
    n   0.39307745     Peri.  279.88679     +0.10894285     +0.99403265
    a   1.8456555      Node   356.35393     -0.87457645     +0.09320523
    e   0.4433818      Incl.    4.98563     -0.47249073     +0.05667340
    P   2.51           H   23.8           G   0.15           U   5
    Residuals in seconds of arc
    140803 F51  0.2+  0.0     140804 F51  0.1-  0.1-    140806 291  0.0   0.2+
    140803 F51  0.0   0.0     140804 F51  0.1+  0.0     140806 291  0.1+  0.1-
    140803 F51  0.1-  0.1+    140804 F51  0.2-  0.0     140806 291  0.1+  0.1+
    
    Ephemeris:
    2014 PJ51                a,e,i = 1.85, 0.44, 5                   q = 1.0273
    Date    TT    R. A. (2000) Decl.     Delta      r     Elong.  Phase     V
    2014 07 07    02 52 56.3 -60 43 00   0.09033 1.0321    97.4    77.7    21.4
    ...
    2014 07 22    01 17 21.2 -37 52 19   0.1112  1.0616   111.4    63.0    21.4
    ...
    2014 07 30    00 52 13.6 -28 55 31   0.1283  1.0871   121.1    53.1    21.5
    ...
    2014 08 05    00 36 19.3 -23 39 15   0.1433  1.1102   129.0    45.3    21.5
    2014 08 06    00 33 48.6 -22 52 40   0.1460  1.1143   130.3    44.0    21.5
    2014 08 07    00 31 19.7 -22 07 42   0.1487  1.1185   131.7    42.6    21.6
    ...
    2014 08 13    00 17 00.1 -18 08 51   0.1664  1.1453   139.8    34.8    21.6
    ...
    2014 08 21    23 59 06.8 -14 01 00   0.1938  1.1848   150.8    24.6    21.7
    ...
    2014 09 05    23 30 40.7 -08 52 13   0.2616  1.2672   170.8     7.3    21.9
    
    A. U. Tomatic                (C) Copyright 2014 MPC           M.P.E.C. 2014-P34
    

    Read MPEC 2014-P33 Read MPEC 2014-P35


    MPEC number:

    Enter an MPEC number in one of the following forms:

    • 1997-B01 (the full form)
    • J97B01 (the packed version of the full form)
    • B01 (the abbreviated form)